contact:dominique.lefevre@mio.osupytheas.fr, maurice.libes@osupytheas.fr, didier.mallarino@osupytheas.fr
Project:EMSO http://www.emso-fr.org/EMSO-France
Depth: 2436.0 m
Title:EMSO Ligure Ouest : Data MII capteur MICROCAT
DateTime_Computer,Latitude,Longitude,Temperature,Conductivity,Pressure,DateTime_Instrument
DateTime_Computer,Latitude,Longitude,degC,S m-1,dbar,DateTime_Instrument
2017-10-24T00:00:01Z,42.805,6.029,13.2937,4.59966,2471.934,2017-10-24T02:01:26Z
2017-10-24T00:01:36Z,42.805,6.029,13.2939,4.59968,2471.897,2017-10-24T02:03:01Z
2017-10-24T00:03:11Z,42.805,6.029,13.2936,4.59968,2471.897,2017-10-24T02:04:36Z
2017-10-24T00:04:45Z,42.805,6.029,13.2939,4.59967,2471.897,2017-10-24T02:06:11Z
2017-10-24T00:06:20Z,42.805,6.029,13.2935,4.59966,2471.934,2017-10-24T02:07:46Z
2017-10-24T00:07:55Z,42.805,6.029,13.2936,4.59967,2471.934,2017-10-24T02:09:20Z
2017-10-24T00:09:30Z,42.805,6.029,13.2937,4.59969,2471.934,2017-10-24T02:10:55Z
2017-10-24T00:11:05Z,42.805,6.029,13.2935,4.59969,2471.919,2017-10-24T02:12:30Z
2017-10-24T00:12:40Z,42.805,6.029,13.2937,4.59967,2471.934,2017-10-24T02:14:05Z
2017-10-24T00:14:14Z,42.805,6.029,13.2935,4.59968,2471.934,2017-10-24T02:15:40Z
2017-10-24T00:15:49Z,42.805,6.029,13.2935,4.59967,2471.912,2017-10-24T02:17:15Z
2017-10-24T00:17:24Z,42.805,6.029,13.2938,4.59967,2471.934,2017-10-24T02:18:49Z
2017-10-24T00:18:59Z,42.805,6.029,13.2934,4.59967,2471.897,2017-10-24T02:20:24Z
2017-10-24T00:20:34Z,42.805,6.029,13.2933,4.59967,2471.912,2017-10-24T02:21:59Z
2017-10-24T00:22:09Z,42.805,6.029,13.2942,4.59967,2471.889,2017-10-24T02:23:34Z
2017-10-24T00:23:43Z,42.805,6.029,13.2938,4.59967,2471.897,2017-10-24T02:25:09Z
2017-10-24T00:25:18Z,42.805,6.029,13.2937,4.59967,2471.919,2017-10-24T02:26:44Z
2017-10-24T00:26:53Z,42.805,6.029,13.2936,4.59967,2471.897,2017-10-24T02:28:19Z
2017-10-24T00:28:28Z,42.805,6.029,13.2939,4.59967,2471.919,2017-10-24T02:29:53Z
2017-10-24T00:30:03Z,42.805,6.029,13.2934,4.59968,2471.912,2017-10-24T02:31:28Z
2017-10-24T00:31:38Z,42.805,6.029,13.2939,4.59967,2471.934,2017-10-24T02:33:03Z
2017-10-24T00:33:13Z,42.805,6.029,13.2936,4.59969,2471.912,2017-10-24T02:34:38Z
2017-10-24T00:34:47Z,42.805,6.029,13.2933,4.59972,2471.912,2017-10-24T02:36:13Z
2017-10-24T00:36:22Z,42.805,6.029,13.2932,4.59969,2471.897,2017-10-24T02:37:48Z
2017-10-24T00:37:57Z,42.805,6.029,13.2939,4.59970,2471.912,2017-10-24T02:39:22Z
2017-10-24T00:39:32Z,42.805,6.029,13.2937,4.59971,2471.919,2017-10-24T02:40:57Z
2017-10-24T00:41:07Z,42.805,6.029,13.2940,4.59972,2471.866,2017-10-24T02:42:32Z
2017-10-24T00:42:42Z,42.805,6.029,13.2936,4.59972,2471.874,2017-10-24T02:44:07Z
2017-10-24T00:44:16Z,42.805,6.029,13.2933,4.59967,2471.897,2017-10-24T02:45:42Z
2017-10-24T00:45:51Z,42.805,6.029,13.2935,4.59965,2471.897,2017-10-24T02:47:17Z
2017-10-24T00:47:26Z,42.805,6.029,13.2937,4.59966,2471.897,2017-10-24T02:48:51Z
2017-10-24T00:49:01Z,42.805,6.029,13.2939,4.59968,2471.897,2017-10-24T02:50:26Z
2017-10-24T00:50:36Z,42.805,6.029,13.2936,4.59965,2471.889,2017-10-24T02:52:01Z
2017-10-24T00:52:11Z,42.805,6.029,13.2933,4.59967,2471.912,2017-10-24T02:53:36Z
2017-10-24T00:53:45Z,42.805,6.029,13.2935,4.59970,2471.897,2017-10-24T02:55:11Z
2017-10-24T00:55:20Z,42.805,6.029,13.2935,4.59966,2471.912,2017-10-24T02:56:46Z
2017-10-24T00:56:55Z,42.805,6.029,13.2934,4.59967,2471.852,2017-10-24T02:58:20Z
2017-10-24T00:58:30Z,42.805,6.029,13.2933,4.59964,2471.874,2017-10-24T02:59:55Z
2017-10-24T01:00:05Z,42.805,6.029,13.2935,4.59968,2471.889,2017-10-24T03:01:30Z
2017-10-24T01:01:40Z,42.805,6.029,13.2938,4.59965,2471.934,2017-10-24T03:03:05Z
2017-10-24T01:03:14Z,42.805,6.029,13.2936,4.59967,2471.912,2017-10-24T03:04:40Z
2017-10-24T01:04:49Z,42.805,6.029,13.2933,4.59967,2471.912,2017-10-24T03:06:15Z
2017-10-24T01:06:24Z,42.805,6.029,13.2936,4.59970,2471.889,2017-10-24T03:07:49Z
2017-10-24T01:07:59Z,42.805,6.029,13.2937,4.59970,2471.934,2017-10-24T03:09:24Z
2017-10-24T01:09:34Z,42.805,6.029,13.2935,4.59968,2471.897,2017-10-24T03:10:59Z
2017-10-24T01:11:09Z,42.805,6.029,13.2937,4.59968,2471.889,2017-10-24T03:12:34Z
2017-10-24T01:12:43Z,42.805,6.029,13.2939,4.59965,2471.912,2017-10-24T03:14:09Z
2017-10-24T01:14:18Z,42.805,6.029,13.2933,4.59966,2471.897,2017-10-24T03:15:44Z
2017-10-24T01:15:53Z,42.805,6.029,13.2938,4.59965,2471.897,2017-10-24T03:17:18Z
2017-10-24T01:17:28Z,42.805,6.029,13.2935,4.59974,2471.912,2017-10-24T03:18:53Z
2017-10-24T01:19:03Z,42.805,6.029,13.2938,4.59966,2471.912,2017-10-24T03:20:28Z
2017-10-24T01:20:38Z,42.805,6.029,13.2935,4.59964,2471.874,2017-10-24T03:22:03Z
2017-10-24T01:22:12Z,42.805,6.029,13.2940,4.59964,2471.874,2017-10-24T03:23:38Z
2017-10-24T01:23:47Z,42.805,6.029,13.2940,4.59965,2471.897,2017-10-24T03:25:13Z
2017-10-24T01:25:22Z,42.805,6.029,13.2939,4.59966,2471.934,2017-10-24T03:26:47Z
2017-10-24T01:26:57Z,42.805,6.029,13.2934,4.59971,2471.897,2017-10-24T03:28:22Z
2017-10-24T01:28:32Z,42.805,6.029,13.2934,4.59967,2471.889,2017-10-24T03:29:57Z
2017-10-24T01:30:07Z,42.805,6.029,13.2939,4.59966,2471.912,2017-10-24T03:31:32Z
2017-10-24T01:31:41Z,42.805,6.029,13.2940,4.59967,2471.912,2017-10-24T03:33:07Z
2017-10-24T01:33:16Z,42.805,6.029,13.2936,4.59967,2471.852,2017-10-24T03:34:42Z
2017-10-24T01:34:51Z,42.805,6.029,13.2938,4.59965,2471.912,2017-10-24T03:36:16Z
2017-10-24T01:36:26Z,42.805,6.029,13.2938,4.59963,2471.889,2017-10-24T03:37:51Z
2017-10-24T01:38:01Z,42.805,6.029,13.2936,4.59963,2471.912,2017-10-24T03:39:26Z
2017-10-24T01:39:36Z,42.805,6.029,13.2938,4.59962,2471.934,2017-10-24T03:41:01Z
2017-10-24T01:41:10Z,42.805,6.029,13.2942,4.59964,2471.934,2017-10-24T03:42:36Z
2017-10-24T01:42:45Z,42.805,6.029,13.2937,4.59968,2471.866,2017-10-24T03:44:11Z
2017-10-24T01:44:20Z,42.805,6.029,13.2934,4.59965,2471.889,2017-10-24T03:45:45Z
2017-10-24T01:45:55Z,42.805,6.029,13.2939,4.59968,2471.889,2017-10-24T03:47:20Z
2017-10-24T01:47:30Z,42.805,6.029,13.2933,4.59963,2471.889,2017-10-24T03:48:55Z
2017-10-24T01:49:05Z,42.805,6.029,13.2937,4.59972,2471.912,2017-10-24T03:50:30Z
2017-10-24T01:50:39Z,42.805,6.029,13.2938,4.59963,2471.889,2017-10-24T03:52:05Z
2017-10-24T01:52:14Z,42.805,6.029,13.2941,4.59964,2471.912,2017-10-24T03:53:40Z
2017-10-24T01:53:49Z,42.805,6.029,13.2938,4.59964,2471.912,2017-10-24T03:55:15Z
2017-10-24T01:55:24Z,42.805,6.029,13.2939,4.59962,2471.889,2017-10-24T03:56:49Z
2017-10-24T01:56:59Z,42.805,6.029,13.2939,4.59964,2471.912,2017-10-24T03:58:24Z
2017-10-24T01:58:34Z,42.805,6.029,13.2933,4.59961,2471.874,2017-10-24T03:59:59Z
2017-10-24T02:00:08Z,42.805,6.029,13.2935,4.59963,2471.874,2017-10-24T04:01:34Z
2017-10-24T02:01:43Z,42.805,6.029,13.2936,4.59962,2471.889,2017-10-24T04:03:09Z
2017-10-24T02:03:18Z,42.805,6.029,13.2939,4.59964,2471.897,2017-10-24T04:04:44Z
2017-10-24T02:04:53Z,42.805,6.029,13.2937,4.59963,2471.889,2017-10-24T04:06:18Z
2017-10-24T02:06:28Z,42.805,6.029,13.2937,4.59963,2471.897,2017-10-24T04:07:53Z
2017-10-24T02:08:03Z,42.805,6.029,13.2935,4.59963,2471.874,2017-10-24T04:09:28Z
2017-10-24T02:09:37Z,42.805,6.029,13.2940,4.59963,2471.919,2017-10-24T04:11:03Z
2017-10-24T02:11:12Z,42.805,6.029,13.2938,4.59964,2471.897,2017-10-24T04:12:38Z
2017-10-24T02:12:47Z,42.805,6.029,13.2933,4.59961,2471.874,2017-10-24T04:14:13Z
2017-10-24T02:14:22Z,42.805,6.029,13.2933,4.59965,2471.852,2017-10-24T04:15:47Z
2017-10-24T02:15:57Z,42.805,6.029,13.2939,4.59970,2471.874,2017-10-24T04:17:22Z
2017-10-24T02:17:32Z,42.805,6.029,13.2935,4.59968,2471.866,2017-10-24T04:18:57Z
2017-10-24T02:19:06Z,42.805,6.029,13.2938,4.59972,2471.874,2017-10-24T04:20:32Z
2017-10-24T02:20:41Z,42.805,6.029,13.2935,4.59964,2471.912,2017-10-24T04:22:07Z
2017-10-24T02:22:16Z,42.805,6.029,13.2936,4.59965,2471.866,2017-10-24T04:23:42Z
2017-10-24T02:23:51Z,42.805,6.029,13.2939,4.59968,2471.874,2017-10-24T04:25:16Z
2017-10-24T02:25:26Z,42.805,6.029,13.2937,4.59964,2471.866,2017-10-24T04:26:51Z
2017-10-24T02:27:01Z,42.805,6.029,13.2938,4.59963,2471.912,2017-10-24T04:28:26Z
2017-10-24T02:28:35Z,42.805,6.029,13.2939,4.59964,2471.897,2017-10-24T04:30:01Z
2017-10-24T02:30:10Z,42.805,6.029,13.2938,4.59970,2471.866,2017-10-24T04:31:36Z
2017-10-24T02:31:45Z,42.805,6.029,13.2936,4.59964,2471.889,2017-10-24T04:33:11Z
2017-10-24T02:33:20Z,42.805,6.029,13.2939,4.59964,2471.889,2017-10-24T04:34:45Z
2017-10-24T02:34:55Z,42.805,6.029,13.2935,4.59962,2471.889,2017-10-24T04:36:20Z
2017-10-24T02:36:30Z,42.805,6.029,13.2936,4.59961,2471.889,2017-10-24T04:37:55Z
2017-10-24T02:38:05Z,42.805,6.029,13.2936,4.59963,2471.866,2017-10-24T04:39:30Z
2017-10-24T02:39:39Z,42.805,6.029,13.2937,4.59964,2471.889,2017-10-24T04:41:05Z
2017-10-24T02:41:14Z,42.805,6.029,13.2935,4.59961,2471.889,2017-10-24T04:42:40Z
2017-10-24T02:42:49Z,42.805,6.029,13.2938,4.59961,2471.852,2017-10-24T04:44:14Z
2017-10-24T02:44:24Z,42.805,6.029,13.2940,4.59962,2471.874,2017-10-24T04:45:49Z
2017-10-24T02:45:59Z,42.805,6.029,13.2940,4.59963,2471.866,2017-10-24T04:47:24Z
2017-10-24T02:47:34Z,42.805,6.029,13.2938,4.59964,2471.866,2017-10-24T04:48:59Z
2017-10-24T02:49:08Z,42.805,6.029,13.2935,4.59961,2471.889,2017-10-24T04:50:34Z
2017-10-24T02:50:43Z,42.805,6.029,13.2939,4.59962,2471.889,2017-10-24T04:52:09Z
2017-10-24T02:52:18Z,42.805,6.029,13.2934,4.59961,2471.866,2017-10-24T04:53:43Z
2017-10-24T02:53:53Z,42.805,6.029,13.2935,4.59961,2471.866,2017-10-24T04:55:18Z
2017-10-24T02:55:28Z,42.805,6.029,13.2942,4.59965,2471.912,2017-10-24T04:56:53Z
2017-10-24T02:57:03Z,42.805,6.029,13.2936,4.59964,2471.852,2017-10-24T04:58:28Z
2017-10-24T02:58:37Z,42.805,6.029,13.2933,4.59961,2471.889,2017-10-24T05:00:03Z
2017-10-24T03:00:12Z,42.805,6.029,13.2938,4.59961,2471.897,2017-10-24T05:01:38Z
2017-10-24T03:01:47Z,42.805,6.029,13.2936,4.59961,2471.889,2017-10-24T05:03:12Z
2017-10-24T03:03:22Z,42.805,6.029,13.2936,4.59964,2471.889,2017-10-24T05:04:47Z
2017-10-24T03:04:57Z,42.805,6.029,13.2933,4.59967,2471.889,2017-10-24T05:06:22Z
2017-10-24T03:06:32Z,42.805,6.029,13.2940,4.59964,2471.874,2017-10-24T05:07:57Z
2017-10-24T03:08:06Z,42.805,6.029,13.2933,4.59965,2471.889,2017-10-24T05:09:32Z
2017-10-24T03:09:41Z,42.805,6.029,13.2939,4.59960,2471.889,2017-10-24T05:11:07Z
2017-10-24T03:11:16Z,42.805,6.029,13.2931,4.59961,2471.889,2017-10-24T05:12:41Z
2017-10-24T03:12:51Z,42.805,6.029,13.2933,4.59961,2471.874,2017-10-24T05:14:16Z
2017-10-24T03:14:26Z,42.805,6.029,13.2939,4.59961,2471.889,2017-10-24T05:15:51Z
2017-10-24T03:16:01Z,42.805,6.029,13.2934,4.59960,2471.852,2017-10-24T05:17:26Z
2017-10-24T03:17:35Z,42.805,6.029,13.2938,4.59961,2471.889,2017-10-24T05:19:01Z
2017-10-24T03:19:10Z,42.805,6.029,13.2937,4.59960,2471.889,2017-10-24T05:20:36Z
2017-10-24T03:20:45Z,42.805,6.029,13.2934,4.59965,2471.852,2017-10-24T05:22:10Z
2017-10-24T03:22:20Z,42.805,6.029,13.2937,4.59963,2471.874,2017-10-24T05:23:45Z
2017-10-24T03:23:55Z,42.805,6.029,13.2935,4.59962,2471.829,2017-10-24T05:25:20Z
2017-10-24T03:25:30Z,42.805,6.029,13.2933,4.59965,2471.889,2017-10-24T05:26:55Z
2017-10-24T03:27:04Z,42.805,6.029,13.2936,4.59961,2471.866,2017-10-24T05:28:30Z
2017-10-24T03:28:39Z,42.805,6.029,13.2935,4.59962,2471.874,2017-10-24T05:30:05Z
2017-10-24T03:30:14Z,42.805,6.029,13.2937,4.59961,2471.889,2017-10-24T05:31:39Z
2017-10-24T03:31:49Z,42.805,6.029,13.2936,4.59962,2471.889,2017-10-24T05:33:14Z
2017-10-24T03:33:24Z,42.805,6.029,13.2935,4.59962,2471.874,2017-10-24T05:34:49Z
2017-10-24T03:34:59Z,42.805,6.029,13.2934,4.59961,2471.874,2017-10-24T05:36:24Z
2017-10-24T03:36:33Z,42.805,6.029,13.2935,4.59962,2471.889,2017-10-24T05:37:59Z
2017-10-24T03:38:08Z,42.805,6.029,13.2932,4.59964,2471.852,2017-10-24T05:39:34Z
2017-10-24T03:39:43Z,42.805,6.029,13.2939,4.59962,2471.889,2017-10-24T05:41:09Z
2017-10-24T03:41:18Z,42.805,6.029,13.2935,4.59962,2471.889,2017-10-24T05:42:43Z
2017-10-24T03:42:53Z,42.805,6.029,13.2935,4.59964,2471.852,2017-10-24T05:44:18Z
2017-10-24T03:44:28Z,42.805,6.029,13.2936,4.59967,2471.889,2017-10-24T05:45:53Z
2017-10-24T03:46:02Z,42.805,6.029,13.2938,4.59961,2471.889,2017-10-24T05:47:28Z
2017-10-24T03:47:37Z,42.805,6.029,13.2936,4.59967,2471.852,2017-10-24T05:49:03Z
2017-10-24T03:49:12Z,42.805,6.029,13.2935,4.59962,2471.889,2017-10-24T05:50:38Z
2017-10-24T03:50:47Z,42.805,6.029,13.2939,4.59967,2471.874,2017-10-24T05:52:12Z
2017-10-24T03:52:22Z,42.805,6.029,13.2933,4.59960,2471.889,2017-10-24T05:53:47Z
2017-10-24T03:53:57Z,42.805,6.029,13.2935,4.59961,2471.889,2017-10-24T05:55:22Z
2017-10-24T03:55:31Z,42.805,6.029,13.2942,4.59963,2471.889,2017-10-24T05:56:57Z
2017-10-24T03:57:06Z,42.805,6.029,13.2937,4.59964,2471.852,2017-10-24T05:58:32Z
2017-10-24T03:58:41Z,42.805,6.029,13.2938,4.59964,2471.852,2017-10-24T06:00:07Z
2017-10-24T04:00:16Z,42.805,6.029,13.2935,4.59961,2471.889,2017-10-24T06:01:41Z
2017-10-24T04:01:51Z,42.805,6.029,13.2938,4.59962,2471.874,2017-10-24T06:03:16Z
2017-10-24T04:03:26Z,42.805,6.029,13.2935,4.59962,2471.889,2017-10-24T06:04:51Z
2017-10-24T04:05:00Z,42.805,6.029,13.2940,4.59963,2471.852,2017-10-24T06:06:26Z
2017-10-24T04:06:35Z,42.805,6.029,13.2935,4.59961,2471.866,2017-10-24T06:08:01Z
2017-10-24T04:08:10Z,42.805,6.029,13.2938,4.59967,2471.897,2017-10-24T06:09:36Z
2017-10-24T04:09:45Z,42.805,6.029,13.2937,4.59963,2471.889,2017-10-24T06:11:10Z
2017-10-24T04:11:20Z,42.805,6.029,13.2938,4.59967,2471.874,2017-10-24T06:12:45Z
2017-10-24T04:12:55Z,42.805,6.029,13.2940,4.59965,2471.852,2017-10-24T06:14:20Z
2017-10-24T04:14:29Z,42.805,6.029,13.2945,4.59961,2471.866,2017-10-24T06:15:55Z
2017-10-24T04:16:04Z,42.805,6.029,13.2937,4.59961,2471.897,2017-10-24T06:17:30Z
2017-10-24T04:17:39Z,42.805,6.029,13.2940,4.59969,2471.889,2017-10-24T06:19:05Z
2017-10-24T04:19:14Z,42.805,6.029,13.2939,4.59965,2471.889,2017-10-24T06:20:39Z
2017-10-24T04:20:49Z,42.805,6.029,13.2934,4.59964,2471.912,2017-10-24T06:22:14Z
2017-10-24T04:22:24Z,42.805,6.029,13.2935,4.59961,2471.889,2017-10-24T06:23:49Z
2017-10-24T04:23:59Z,42.805,6.029,13.2937,4.59962,2471.889,2017-10-24T06:25:24Z
2017-10-24T04:25:33Z,42.805,6.029,13.2938,4.59959,2471.889,2017-10-24T06:26:59Z
2017-10-24T04:27:08Z,42.805,6.029,13.2936,4.59960,2471.889,2017-10-24T06:28:34Z
2017-10-24T04:28:43Z,42.805,6.029,13.2936,4.59963,2471.874,2017-10-24T06:30:08Z
2017-10-24T04:30:18Z,42.805,6.029,13.2938,4.59960,2471.889,2017-10-24T06:31:43Z
2017-10-24T04:31:53Z,42.805,6.029,13.2933,4.59967,2471.889,2017-10-24T06:33:18Z
2017-10-24T04:33:28Z,42.805,6.029,13.2940,4.59959,2471.874,2017-10-24T06:34:53Z
2017-10-24T04:35:02Z,42.805,6.029,13.2938,4.59972,2471.866,2017-10-24T06:36:28Z
2017-10-24T04:36:37Z,42.805,6.029,13.2939,4.59961,2471.889,2017-10-24T06:38:03Z
2017-10-24T04:38:12Z,42.805,6.029,13.2939,4.59961,2471.889,2017-10-24T06:39:37Z
2017-10-24T04:39:47Z,42.805,6.029,13.2939,4.59960,2471.866,2017-10-24T06:41:12Z
2017-10-24T04:41:22Z,42.805,6.029,13.2941,4.59962,2471.852,2017-10-24T06:42:47Z
2017-10-24T04:42:57Z,42.805,6.029,13.2948,4.59961,2471.866,2017-10-24T06:44:22Z
2017-10-24T04:44:31Z,42.805,6.029,13.2945,4.59961,2471.889,2017-10-24T06:45:57Z
2017-10-24T04:46:06Z,42.805,6.029,13.2938,4.59960,2471.874,2017-10-24T06:47:32Z
2017-10-24T04:47:41Z,42.805,6.029,13.2936,4.59966,2471.889,2017-10-24T06:49:06Z
2017-10-24T04:49:16Z,42.805,6.029,13.2938,4.59960,2471.866,2017-10-24T06:50:41Z
2017-10-24T04:50:51Z,42.805,6.029,13.2938,4.59961,2471.874,2017-10-24T06:52:16Z
2017-10-24T04:52:26Z,42.805,6.029,13.2937,4.59961,2471.897,2017-10-24T06:53:51Z
2017-10-24T04:54:00Z,42.805,6.029,13.2937,4.59959,2471.889,2017-10-24T06:55:26Z
2017-10-24T04:55:35Z,42.805,6.029,13.2939,4.59959,2471.912,2017-10-24T06:57:01Z
2017-10-24T04:57:10Z,42.805,6.029,13.2937,4.59959,2471.897,2017-10-24T06:58:35Z
2017-10-24T04:58:45Z,42.805,6.029,13.2939,4.59961,2471.866,2017-10-24T07:00:10Z
2017-10-24T05:00:20Z,42.805,6.029,13.2938,4.59960,2471.874,2017-10-24T07:01:45Z
2017-10-24T05:01:55Z,42.805,6.029,13.2936,4.59961,2471.889,2017-10-24T07:03:20Z
2017-10-24T05:03:29Z,42.805,6.029,13.2936,4.59960,2471.889,2017-10-24T07:04:55Z
2017-10-24T05:05:04Z,42.805,6.029,13.2939,4.59961,2471.919,2017-10-24T07:06:30Z
2017-10-24T05:06:39Z,42.805,6.029,13.2939,4.59959,2471.889,2017-10-24T07:08:04Z
2017-10-24T05:08:14Z,42.805,6.029,13.2931,4.59961,2471.874,2017-10-24T07:09:39Z
2017-10-24T05:09:49Z,42.805,6.029,13.2938,4.59963,2471.897,2017-10-24T07:11:14Z
2017-10-24T05:11:24Z,42.805,6.029,13.2936,4.59961,2471.874,2017-10-24T07:12:49Z
2017-10-24T05:12:58Z,42.805,6.029,13.2939,4.59967,2471.889,2017-10-24T07:14:24Z
2017-10-24T05:14:33Z,42.805,6.029,13.2936,4.59961,2471.874,2017-10-24T07:15:59Z
2017-10-24T05:16:08Z,42.805,6.029,13.2933,4.59960,2471.912,2017-10-24T07:17:33Z
2017-10-24T05:17:43Z,42.805,6.029,13.2933,4.59961,2471.912,2017-10-24T07:19:08Z
2017-10-24T05:19:18Z,42.805,6.029,13.2939,4.59961,2471.874,2017-10-24T07:20:43Z
2017-10-24T05:20:53Z,42.805,6.029,13.2935,4.59960,2471.912,2017-10-24T07:22:18Z
2017-10-24T05:22:27Z,42.805,6.029,13.2939,4.59959,2471.889,2017-10-24T07:23:53Z
2017-10-24T05:24:02Z,42.805,6.029,13.2938,4.59962,2471.897,2017-10-24T07:25:28Z
2017-10-24T05:25:37Z,42.805,6.029,13.2935,4.59961,2471.912,2017-10-24T07:27:03Z
2017-10-24T05:27:12Z,42.805,6.029,13.2936,4.59970,2471.912,2017-10-24T07:28:37Z
2017-10-24T05:28:47Z,42.805,6.029,13.2941,4.59959,2471.912,2017-10-24T07:30:12Z
2017-10-24T05:30:22Z,42.805,6.029,13.2940,4.59964,2471.912,2017-10-24T07:31:47Z
2017-10-24T05:31:56Z,42.805,6.029,13.2937,4.59963,2471.897,2017-10-24T07:33:22Z
2017-10-24T05:33:31Z,42.805,6.029,13.2939,4.59965,2471.897,2017-10-24T07:34:57Z
2017-10-24T05:35:06Z,42.805,6.029,13.2938,4.59961,2471.912,2017-10-24T07:36:32Z
2017-10-24T05:36:41Z,42.805,6.029,13.2934,4.59961,2471.912,2017-10-24T07:38:06Z
2017-10-24T05:38:16Z,42.805,6.029,13.2937,4.59960,2471.912,2017-10-24T07:39:41Z
2017-10-24T05:39:51Z,42.805,6.029,13.2939,4.59961,2471.897,2017-10-24T07:41:16Z
2017-10-24T05:41:25Z,42.805,6.029,13.2939,4.59965,2471.934,2017-10-24T07:42:51Z
2017-10-24T05:43:00Z,42.805,6.029,13.2939,4.59961,2471.919,2017-10-24T07:44:26Z
2017-10-24T05:44:35Z,42.805,6.029,13.2937,4.59963,2471.912,2017-10-24T07:46:01Z
2017-10-24T05:46:10Z,42.805,6.029,13.2937,4.59964,2471.912,2017-10-24T07:47:35Z
2017-10-24T05:47:45Z,42.805,6.029,13.2943,4.59967,2471.897,2017-10-24T07:49:10Z
2017-10-24T05:49:20Z,42.805,6.029,13.2935,4.59961,2471.934,2017-10-24T07:50:45Z
2017-10-24T05:50:55Z,42.805,6.029,13.2937,4.59961,2471.912,2017-10-24T07:52:20Z
2017-10-24T05:52:29Z,42.805,6.029,13.2939,4.59961,2471.912,2017-10-24T07:53:55Z
2017-10-24T05:54:04Z,42.805,6.029,13.2935,4.59964,2471.919,2017-10-24T07:55:30Z
2017-10-24T05:55:39Z,42.805,6.029,13.2938,4.59963,2471.919,2017-10-24T07:57:04Z
2017-10-24T05:57:14Z,42.805,6.029,13.2938,4.59966,2471.912,2017-10-24T07:58:39Z
2017-10-24T05:58:49Z,42.805,6.029,13.2939,4.59965,2471.912,2017-10-24T08:00:14Z
2017-10-24T06:00:24Z,42.805,6.029,13.2939,4.59971,2471.919,2017-10-24T08:01:49Z
2017-10-24T06:01:58Z,42.805,6.029,13.2936,4.59981,2471.957,2017-10-24T08:03:24Z
2017-10-24T06:03:33Z,42.805,6.029,13.2938,4.59988,2471.897,2017-10-24T08:04:59Z
2017-10-24T06:05:08Z,42.805,6.029,13.2937,4.59967,2471.919,2017-10-24T08:06:33Z
2017-10-24T06:06:43Z,42.805,6.029,13.2941,4.59968,2471.897,2017-10-24T08:08:08Z
2017-10-24T06:08:18Z,42.805,6.029,13.2939,4.59967,2471.942,2017-10-24T08:09:43Z
2017-10-24T06:09:53Z,42.805,6.029,13.2942,4.59980,2471.934,2017-10-24T08:11:18Z
2017-10-24T06:11:27Z,42.805,6.029,13.2935,4.59971,2471.934,2017-10-24T08:12:53Z
2017-10-24T06:13:02Z,42.805,6.029,13.2943,4.59971,2471.919,2017-10-24T08:14:28Z
2017-10-24T06:14:37Z,42.805,6.029,13.2949,4.59971,2471.934,2017-10-24T08:16:02Z
2017-10-24T06:16:12Z,42.805,6.029,13.2948,4.59974,2471.942,2017-10-24T08:17:37Z
2017-10-24T06:17:47Z,42.805,6.029,13.2950,4.59967,2471.942,2017-10-24T08:19:12Z
2017-10-24T06:19:22Z,42.805,6.029,13.2951,4.59967,2471.912,2017-10-24T08:20:47Z
2017-10-24T06:20:56Z,42.805,6.029,13.2948,4.59964,2471.942,2017-10-24T08:22:22Z
2017-10-24T06:22:31Z,42.805,6.029,13.2943,4.59964,2471.957,2017-10-24T08:23:57Z
2017-10-24T06:24:06Z,42.805,6.029,13.2949,4.59963,2471.942,2017-10-24T08:25:31Z
2017-10-24T06:25:41Z,42.805,6.029,13.2941,4.59964,2471.957,2017-10-24T08:27:06Z
2017-10-24T06:27:16Z,42.805,6.029,13.2943,4.59963,2471.979,2017-10-24T08:28:41Z
2017-10-24T06:28:51Z,42.805,6.029,13.2937,4.59964,2471.942,2017-10-24T08:30:16Z
2017-10-24T06:30:25Z,42.805,6.029,13.2946,4.59966,2471.971,2017-10-24T08:31:51Z
2017-10-24T06:32:00Z,42.805,6.029,13.2938,4.59970,2471.957,2017-10-24T08:33:26Z
2017-10-24T06:33:35Z,42.805,6.029,13.2939,4.59970,2471.979,2017-10-24T08:35:00Z
2017-10-24T06:35:10Z,42.805,6.029,13.2935,4.59972,2471.919,2017-10-24T08:36:35Z
2017-10-24T06:36:45Z,42.805,6.029,13.2936,4.59975,2471.934,2017-10-24T08:38:10Z
2017-10-24T06:38:20Z,42.805,6.029,13.2939,4.59993,2471.964,2017-10-24T08:39:45Z
2017-10-24T06:39:54Z,42.805,6.029,13.2939,4.59977,2471.964,2017-10-24T08:41:20Z
2017-10-24T06:41:29Z,42.805,6.029,13.2938,4.59968,2471.942,2017-10-24T08:42:55Z
2017-10-24T06:43:04Z,42.805,6.029,13.2939,4.59967,2471.979,2017-10-24T08:44:29Z
2017-10-24T06:44:39Z,42.805,6.029,13.2940,4.59967,2472.002,2017-10-24T08:46:04Z
2017-10-24T06:46:14Z,42.805,6.029,13.2942,4.59967,2471.957,2017-10-24T08:47:39Z
2017-10-24T06:47:49Z,42.805,6.029,13.2939,4.59970,2471.964,2017-10-24T08:49:14Z
2017-10-24T06:49:23Z,42.805,6.029,13.2938,4.59967,2471.942,2017-10-24T08:50:49Z
2017-10-24T06:50:58Z,42.805,6.029,13.2936,4.59970,2471.957,2017-10-24T08:52:24Z
2017-10-24T06:52:33Z,42.805,6.029,13.2943,4.60008,2471.994,2017-10-24T08:53:59Z
2017-10-24T06:54:08Z,42.805,6.029,13.2940,4.60008,2472.002,2017-10-24T08:55:33Z
2017-10-24T06:55:43Z,42.805,6.029,13.2936,4.60012,2471.957,2017-10-24T08:57:08Z
2017-10-24T06:57:18Z,42.805,6.029,13.2939,4.59997,2471.957,2017-10-24T08:58:43Z
2017-10-24T06:58:52Z,42.805,6.029,13.2939,4.60008,2472.002,2017-10-24T09:00:18Z
2017-10-24T07:00:27Z,42.805,6.029,13.2935,4.59980,2471.979,2017-10-24T09:01:53Z
2017-10-24T07:02:02Z,42.805,6.029,13.2937,4.59967,2471.979,2017-10-24T09:03:28Z
2017-10-24T07:03:37Z,42.805,6.029,13.2939,4.59967,2472.002,2017-10-24T09:05:02Z
2017-10-24T07:05:12Z,42.805,6.029,13.2935,4.59966,2472.002,2017-10-24T09:06:37Z
2017-10-24T07:06:47Z,42.805,6.029,13.2939,4.59970,2471.964,2017-10-24T09:08:12Z
2017-10-24T07:08:21Z,42.805,6.029,13.2934,4.59992,2471.964,2017-10-24T09:09:47Z
2017-10-24T07:09:56Z,42.805,6.029,13.2936,4.59967,2471.987,2017-10-24T09:11:22Z
2017-10-24T07:11:31Z,42.805,6.029,13.2938,4.59978,2471.987,2017-10-24T09:12:57Z
2017-10-24T07:13:06Z,42.805,6.029,13.2939,4.59994,2472.002,2017-10-24T09:14:31Z
2017-10-24T07:14:41Z,42.805,6.029,13.2948,4.60012,2472.002,2017-10-24T09:16:06Z
2017-10-24T07:16:16Z,42.805,6.029,13.2948,4.59987,2472.002,2017-10-24T09:17:41Z
2017-10-24T07:17:50Z,42.805,6.029,13.2943,4.59983,2472.002,2017-10-24T09:19:16Z
2017-10-24T07:19:25Z,42.805,6.029,13.2949,4.59975,2471.979,2017-10-24T09:20:51Z
2017-10-24T07:21:00Z,42.805,6.029,13.2948,4.59968,2472.002,2017-10-24T09:22:26Z
2017-10-24T07:22:35Z,42.805,6.029,13.2945,4.59970,2471.987,2017-10-24T09:24:00Z
2017-10-24T07:24:10Z,42.805,6.029,13.2941,4.59972,2472.002,2017-10-24T09:25:35Z
2017-10-24T07:25:45Z,42.805,6.029,13.2940,4.59971,2472.01,2017-10-24T09:27:10Z
2017-10-24T07:27:19Z,42.805,6.029,13.2944,4.59973,2472.024,2017-10-24T09:28:45Z
2017-10-24T07:28:54Z,42.805,6.029,13.2939,4.59970,2472.01,2017-10-24T09:30:20Z
2017-10-24T07:30:29Z,42.805,6.029,13.2940,4.59978,2472.024,2017-10-24T09:31:55Z
2017-10-24T07:32:04Z,42.805,6.029,13.2940,4.59979,2472.039,2017-10-24T09:33:29Z
2017-10-24T07:33:39Z,42.805,6.029,13.2945,4.59983,2472.01,2017-10-24T09:35:04Z
2017-10-24T07:35:14Z,42.805,6.029,13.2942,4.59973,2472.01,2017-10-24T09:36:39Z
2017-10-24T07:36:48Z,42.805,6.029,13.2941,4.59983,2472.047,2017-10-24T09:38:14Z
2017-10-24T07:38:23Z,42.805,6.029,13.2943,4.59975,2472.047,2017-10-24T09:39:49Z
2017-10-24T07:39:58Z,42.805,6.029,13.2947,4.59970,2472.01,2017-10-24T09:41:24Z
2017-10-24T07:41:33Z,42.805,6.029,13.2939,4.59973,2472.024,2017-10-24T09:42:58Z
2017-10-24T07:43:08Z,42.805,6.029,13.2935,4.59975,2472.016,2017-10-24T09:44:33Z
2017-10-24T07:44:43Z,42.805,6.029,13.2939,4.59977,2472.002,2017-10-24T09:46:08Z